Content
SEND FEEDBACK

Daily
Averages
Monthly
Summary
United States of America

ANN ARBOR, MICHIGAN


Home > North America > United States > Michigan
Elevation: 759 feet     Latitude: 42 17N     Longitude: 083 43W

WEATHER
 
SELECT A DAY
Number of Records: 203,372;   Date Range: 1/1/95 - 7/28/14
 
SHARE

PRINT THIS DATA

[ ← Previous Day ]
WEATHER ALMANAC - MAY 19, 2013
[ Next Day → ]
[ °C ]   °F
Weather ElementAverageHighLow
Temperature70.3 °F84.9 °F (4:53 pm)48.9 °F (4:53 am)
Dewpoint56 °F63 °F (6:53 pm)44.1 °F (1:53 am)
Humidity61.8 %83 % (4:53 am)43 % (4:53 pm)
Barometer29.97 in30.03 in (1:53 am)29.90 in (4:53 pm)
Wind Speed3.8 mph11.5 mph (5:53 pm)
Weather ElementAverage
Visibility10 mi
Wind DirectionENE (60 °)

Weather ElementTotal
Precipitation---
Cooling Degree Days1.9 (Base 65)
Growing Degree Days16.9 (Base 50)
Averaged from 19 records on May 19, 2013
WEATHER CONDITIONS BREAKOUT
WIND DIRECTION BREAKOUT
WEATHER BY HOUR - MAY 19, 2013
[ °C ]   °F
Local TimeTemperatureDewpointHumidityBarometerVisibilityWind DirectionWind SpeedGust SpeedPrecipitationEventsConditions
1:53 AM57.9 °F44.1 °F60 %30.03 in10.0 miCalmClear
2:53 AM57.0 °F44.1 °F62 %30.00 in10.0 miCalmClear
3:53 AM52.0 °F45.0 °F77 %30.01 in10.0 miCalmClear
4:53 AM48.9 °F44.1 °F83 %30.01 in10.0 miCalmClear
6:53 AM51.1 °F46.0 °F83 %30.03 in10.0 miCalmClear
8:53 AM64.9 °F52.0 °F63 %30.02 in10.0 miCalmClear
9:53 AM69.1 °F55.9 °F63 %30.01 in10.0 miSE (130°)5.8 mphClear
10:53 AM73.0 °F59.0 °F61 %30.00 in10.0 miCalmClear
11:53 AM77.0 °F61.0 °F58 %30.00 in10.0 miCalmClear
12:53 PM80.1 °F61.0 °F52 %29.99 in10.0 miESE (120°)5.8 mphClear
1:53 PM82.0 °F62.1 °F51 %29.96 in10.0 miVariable5.8 mphPartly Cloudy
3:53 PM84.0 °F61.0 °F46 %29.94 in10.0 miCalmPartly Cloudy
4:53 PM84.9 °F60.1 °F43 %29.90 in10.0 miCalmClear
5:53 PM82.0 °F62.1 °F51 %29.91 in10.0 miSSE (160°)11.5 mphPartly Cloudy
6:53 PM81.0 °F63.0 °F54 %29.91 in10.0 miSE (140°)11.5 mphClear
7:53 PM78.1 °F62.1 °F58 %29.91 in10.0 miSSE (160°)10.4 mphClear
8:53 PM73.9 °F61.0 °F64 %29.90 in10.0 miSSE (150°)8.1 mphClear
9:53 PM71.1 °F61.0 °F70 %29.91 in10.0 miSSE (150°)5.8 mphClear
10:53 PM68.0 °F60.1 °F76 %29.91 in10.0 miSE (130°)6.9 mphClear
Hourly data recorded from KARB, located miles away from Ann Arbor, Michigan







STORIES FROM OUR PARTNERS